TimeCST,TemperatureF,Dew PointF,Humidity,Sea Level PressureIn,VisibilityMPH,Wind Direction,Wind SpeedMPH,Gust SpeedMPH,PrecipitationIn,Events,Conditions,WindDirDegrees,DateUTC
12:13 AM,6.8,-0.4,72,29.98,10.0,NW,4.6,-,N/A,,Mostly Cloudy,320,2012-12-24 06:13:00
12:33 AM,6.8,-2.2,67,29.98,10.0,NNW,4.6,-,N/A,,Overcast,330,2012-12-24 06:33:00
12:53 AM,6.8,-2.2,67,29.98,10.0,NNW,4.6,-,N/A,,Overcast,330,2012-12-24 06:53:00
1:13 AM,6.8,-2.2,67,29.97,10.0,North,4.6,-,N/A,,Overcast,350,2012-12-24 07:13:00
1:33 AM,6.8,-2.2,67,29.97,10.0,NNW,3.5,-,N/A,,Overcast,340,2012-12-24 07:33:00
1:53 AM,6.8,-2.2,67,29.97,10.0,NNW,5.8,-,N/A,,Overcast,330,2012-12-24 07:53:00
2:13 AM,6.8,-2.2,67,29.98,10.0,Calm,Calm,-,N/A,,Overcast,0,2012-12-24 08:13:00
2:33 AM,6.8,-2.2,67,29.98,10.0,North,3.5,-,N/A,,Overcast,350,2012-12-24 08:33:00
2:53 AM,6.8,-4.0,61,29.98,10.0,NNW,4.6,-,N/A,,Overcast,340,2012-12-24 08:53:00
3:13 AM,6.8,-4.0,61,29.98,10.0,North,4.6,-,N/A,,Overcast,350,2012-12-24 09:13:00
3:33 AM,5.0,-4.0,66,29.98,10.0,NNW,3.5,-,N/A,,Overcast,330,2012-12-24 09:33:00
3:53 AM,5.0,-5.8,61,29.98,10.0,NNW,5.8,-,N/A,,Overcast,330,2012-12-24 09:53:00
4:13 AM,5.0,-5.8,61,29.98,10.0,NNW,4.6,-,N/A,,Overcast,330,2012-12-24 10:13:00
4:33 AM,5.0,-5.8,61,29.98,10.0,NNW,4.6,-,N/A,,Overcast,340,2012-12-24 10:33:00
4:53 AM,5.0,-5.8,61,29.98,10.0,NNW,3.5,-,N/A,,Overcast,330,2012-12-24 10:53:00
5:13 AM,3.2,-7.6,61,29.97,10.0,NNW,5.8,-,N/A,,Overcast,340,2012-12-24 11:13:00
5:33 AM,3.2,-7.6,61,29.97,10.0,NNW,4.6,-,N/A,,Overcast,330,2012-12-24 11:33:00
5:53 AM,3.2,-7.6,61,29.98,10.0,North,4.6,-,N/A,,Overcast,350,2012-12-24 11:53:00
6:13 AM,3.2,-7.6,61,29.98,10.0,NW,5.8,-,N/A,,Overcast,320,2012-12-24 12:13:00
6:33 AM,3.2,-7.6,61,29.99,10.0,North,4.6,-,N/A,,Mostly Cloudy,350,2012-12-24 12:33:00
6:53 AM,1.4,-7.6,66,29.99,10.0,NNW,4.6,-,N/A,,Overcast,340,2012-12-24 12:53:00
7:13 AM,1.4,-7.6,66,29.99,10.0,North,3.5,-,N/A,,Overcast,360,2012-12-24 13:13:00
7:33 AM,1.4,-9.4,61,29.99,10.0,Calm,Calm,-,N/A,,Overcast,0,2012-12-24 13:33:00
7:54 AM,1.4,-9.4,61,29.99,10.0,Calm,Calm,-,N/A,,Overcast,0,2012-12-24 13:54:00
8:13 AM,1.4,-7.6,66,29.99,10.0,NNW,4.6,-,N/A,,Mostly Cloudy,340,2012-12-24 14:13:00
8:33 AM,1.4,-9.4,61,30.00,10.0,NNW,6.9,-,N/A,,Scattered Clouds,330,2012-12-24 14:33:00
8:53 AM,3.2,-9.4,56,30.00,10.0,NNW,4.6,-,N/A,,Clear,340,2012-12-24 14:53:00
9:13 AM,3.2,-9.4,56,30.01,10.0,NNW,8.1,-,N/A,,Clear,340,2012-12-24 15:13:00
9:33 AM,3.2,-9.4,56,30.01,10.0,NNW,10.4,16.1,N/A,,Clear,340,2012-12-24 15:33:00
9:53 AM,3.2,-9.4,56,30.01,10.0,NNW,10.4,-,N/A,,Clear,340,2012-12-24 15:53:00
10:13 AM,5.0,-7.6,56,30.01,10.0,NNW,6.9,-,N/A,,Clear,330,2012-12-24 16:13:00
10:33 AM,6.8,-5.8,56,30.02,10.0,NNW,6.9,-,N/A,,Clear,340,2012-12-24 16:33:00
10:53 AM,8.6,-5.8,52,30.01,10.0,NNW,6.9,-,N/A,,Clear,330,2012-12-24 16:53:00
11:13 AM,8.6,-5.8,52,30.02,10.0,NNW,5.8,-,N/A,,Clear,340,2012-12-24 17:13:00
11:33 AM,8.6,-5.8,52,30.02,10.0,NNW,4.6,-,N/A,,Clear,340,2012-12-24 17:33:00
11:53 AM,10.4,-4.0,52,30.01,10.0,NNW,8.1,-,N/A,,Clear,340,2012-12-24 17:53:00
12:13 PM,12.2,-2.2,53,30.02,10.0,NNW,8.1,-,N/A,,Clear,340,2012-12-24 18:13:00
12:33 PM,8.6,-4.0,57,30.03,10.0,NNW,5.8,-,N/A,,Clear,330,2012-12-24 18:33:00
12:53 PM,10.4,-4.0,52,30.03,10.0,NNW,4.6,-,N/A,,Clear,340,2012-12-24 18:53:00
1:13 PM,12.2,-2.2,53,30.03,10.0,North,3.5,-,N/A,,Clear,350,2012-12-24 19:13:00
1:33 PM,10.4,-2.2,57,30.03,10.0,NW,6.9,-,N/A,,Clear,320,2012-12-24 19:33:00
1:53 PM,10.4,-2.2,57,30.03,10.0,NNW,6.9,-,N/A,,Clear,340,2012-12-24 19:53:00
2:13 PM,12.2,-2.2,53,30.03,10.0,NNW,4.6,-,N/A,,Clear,340,2012-12-24 20:13:00
2:33 PM,12.2,-2.2,53,30.04,10.0,NW,5.8,-,N/A,,Clear,320,2012-12-24 20:33:00
2:53 PM,10.4,-2.2,57,30.05,10.0,Calm,Calm,-,N/A,,Clear,0,2012-12-24 20:53:00
3:13 PM,10.4,-2.2,57,30.06,10.0,North,3.5,-,N/A,,Clear,360,2012-12-24 21:13:00
3:33 PM,8.6,-4.0,57,30.06,10.0,NNW,8.1,-,N/A,,Clear,340,2012-12-24 21:33:00
3:53 PM,6.8,-4.0,61,30.06,10.0,NNW,5.8,-,N/A,,Clear,340,2012-12-24 21:53:00
4:13 PM,6.8,-5.8,56,30.06,10.0,NNW,4.6,-,N/A,,Clear,340,2012-12-24 22:13:00
4:33 PM,5.0,-5.8,61,30.06,10.0,NNW,8.1,-,N/A,,Clear,330,2012-12-24 22:33:00
4:53 PM,3.2,-5.8,66,30.06,10.0,NNW,6.9,-,N/A,,Clear,330,2012-12-24 22:53:00
5:13 PM,3.2,-5.8,66,30.06,10.0,NNW,5.8,-,N/A,,Clear,330,2012-12-24 23:13:00
5:33 PM,3.2,-5.8,66,30.07,10.0,North,8.1,-,N/A,,Clear,350,2012-12-24 23:33:00
5:53 PM,3.2,-7.6,61,30.08,10.0,North,3.5,-,N/A,,Clear,360,2012-12-24 23:53:00
6:13 PM,1.4,-7.6,66,30.08,10.0,North,6.9,-,N/A,,Clear,350,2012-12-25 00:13:00
6:33 PM,1.4,-7.6,66,30.09,10.0,North,6.9,-,N/A,,Clear,350,2012-12-25 00:33:00
6:53 PM,1.4,-7.6,66,30.09,10.0,NNW,5.8,-,N/A,,Clear,330,2012-12-25 00:53:00
7:13 PM,1.4,-7.6,66,30.10,10.0,NNW,8.1,-,N/A,,Clear,330,2012-12-25 01:13:00
7:33 PM,1.4,-7.6,66,30.11,10.0,NNW,4.6,-,N/A,,Clear,330,2012-12-25 01:33:00
7:53 PM,-0.4,-7.6,72,30.12,10.0,NW,4.6,-,N/A,,Clear,320,2012-12-25 01:53:00
8:13 PM,-0.4,-9.4,66,30.12,10.0,NNW,5.8,-,N/A,,Clear,330,2012-12-25 02:13:00
8:33 PM,-0.4,-9.4,66,30.13,10.0,NNW,3.5,-,N/A,,Clear,340,2012-12-25 02:33:00
8:53 PM,-0.4,-9.4,66,30.13,10.0,NNW,3.5,-,N/A,,Clear,330,2012-12-25 02:53:00
9:13 PM,-0.4,-9.4,66,30.13,10.0,NW,3.5,-,N/A,,Clear,320,2012-12-25 03:13:00
9:33 PM,-2.2,-9.4,71,30.14,10.0,NNW,5.8,-,N/A,,Clear,340,2012-12-25 03:33:00
9:53 PM,-2.2,-9.4,71,30.14,10.0,Calm,Calm,-,N/A,,Clear,0,2012-12-25 03:53:00
10:13 PM,-2.2,-9.4,71,30.15,10.0,Calm,Calm,-,N/A,,Clear,0,2012-12-25 04:13:00
10:33 PM,-2.2,-9.4,71,30.15,10.0,NNW,4.6,-,N/A,,Clear,340,2012-12-25 04:33:00
10:53 PM,-2.2,-9.4,71,30.16,10.0,NNW,5.8,-,N/A,,Clear,330,2012-12-25 04:53:00
11:13 PM,-2.2,-9.4,71,30.16,10.0,Calm,Calm,-,N/A,,Clear,0,2012-12-25 05:13:00
11:33 PM,-2.2,-9.4,71,30.17,10.0,NNW,3.5,-,N/A,,Clear,330,2012-12-25 05:33:00
11:53 PM,-2.2,-9.4,71,30.17,10.0,NNW,3.5,-,N/A,,Clear,340,2012-12-25 05:53:00